| time (UTC) | temp F | wind direction | speed MPH | gust MPH | rain 1hr in | rain 24hr in | rain mn in | humidity % | barometer mb |
| 20260502130722 | 51 | 13 | 1.0 | 3.0 | 0.00 | 0.00 | 0.00 | 64 | 1016.7 |
| 20260502130220 | 51 | 342 | 1.0 | 2.0 | 0.00 | 0.00 | 0.00 | 65 | 1016.4 |
| 20260502123706 | 50 | 1 | 4.0 | 6.0 | 0.00 | 0.00 | 0.00 | 67 | 1016.5 |
| 20260502123202 | 50 | 317 | 4.0 | 5.0 | 0.00 | 0.00 | 0.00 | 67 | 1016.7 |
| 20260502122658 | 50 | 20 | 5.0 | 6.0 | 0.00 | 0.00 | 0.00 | 67 | 1016.5 |
| 20260502122155 | 50 | 266 | 3.0 | 3.0 | 0.00 | 0.00 | 0.00 | 67 | 1016.5 |
| 20260502121653 | 50 | 272 | 3.0 | 3.0 | 0.00 | 0.00 | 0.00 | 67 | 1016.5 |
| 20260502121151 | 50 | 357 | 3.0 | 5.0 | 0.00 | 0.00 | 0.00 | 68 | 1016.5 |
| 20260502120647 | 50 | 357 | 5.0 | 7.0 | 0.00 | 0.00 | 0.00 | 68 | 1016.7 |
| 20260502120144 | 50 | 344 | 3.0 | 3.0 | 0.00 | 0.00 | 0.00 | 68 | 1016.5 |
| 20260502115642 | 50 | 281 | 1.0 | 1.0 | 0.00 | 0.00 | 0.00 | 68 | 1016.5 |
| 20260502115137 | 50 | 325 | 4.0 | 7.0 | 0.00 | 0.00 | 0.00 | 67 | 1016.4 |
| 20260502114633 | 50 | 312 | 3.0 | 3.0 | 0.00 | 0.00 | 0.00 | 67 | 1016.4 |
| 20260502114131 | 50 | 314 | 2.0 | 3.0 | 0.00 | 0.00 | 0.00 | 67 | 1016.5 |
| 20260502113628 | 50 | 336 | 3.0 | 6.0 | 0.00 | 0.00 | 0.00 | 67 | 1016.4 |
| 20260502113127 | 50 | 295 | 3.0 | 5.0 | 0.00 | 0.00 | 0.00 | 67 | 1016.4 |
| 20260502112624 | 50 | 352 | 2.0 | 2.0 | 0.00 | 0.00 | 0.00 | 67 | 1016.6 |
| 20260502112121 | 50 | 298 | 5.0 | 7.0 | 0.00 | 0.00 | 0.00 | 66 | 1016.8 |
| 20260502111619 | 50 | 263 | 5.0 | 7.0 | 0.00 | 0.00 | 0.00 | 66 | 1016.5 |
| 20260502111116 | 50 | 356 | 3.0 | 6.0 | 0.00 | 0.00 | 0.00 | 65 | 1016.4 |
| 20260502110614 | 50 | 347 | 3.0 | 5.0 | 0.00 | 0.00 | 0.00 | 65 | 1016.3 |
| 20260502110111 | 50 | 264 | 6.0 | 9.0 | 0.00 | 0.00 | 0.00 | 64 | 1016.6 |
| 20260502105608 | 50 | 7 | 2.0 | 2.0 | 0.00 | 0.00 | 0.00 | 63 | 1016.1 |
| 20260502105106 | 50 | 321 | 5.0 | 9.0 | 0.00 | 0.00 | 0.00 | 63 | 1016.2 |
| 20260502104603 | 50 | 15 | 5.0 | 7.0 | 0.00 | 0.00 | 0.00 | 64 | 1016.2 |
| 20260502104100 | 50 | 23 | 1.0 | 1.0 | 0.00 | 0.00 | 0.00 | 65 | 1015.9 |
| 20260502103558 | 51 | 34 | 4.0 | 6.0 | 0.00 | 0.00 | 0.00 | 66 | 1016.0 |
| 20260502103056 | 51 | 10 | 7.0 | 9.0 | 0.00 | 0.00 | 0.00 | 66 | 1015.9 |
| 20260502102551 | 51 | 326 | 1.0 | 2.0 | 0.00 | 0.00 | 0.00 | 66 | 1015.9 |
| 20260502102049 | 51 | 294 | 3.0 | 5.0 | 0.00 | 0.00 | 0.00 | 66 | 1015.8 |
| 20260502101547 | 51 | 311 | 4.0 | 6.0 | 0.00 | 0.00 | 0.00 | 66 | 1015.7 |
| 20260502101045 | 51 | 300 | 3.0 | 3.0 | 0.00 | 0.00 | 0.00 | 65 | 1015.6 |
| 20260502100543 | 51 | 40 | 5.0 | 6.0 | 0.00 | 0.00 | 0.00 | 65 | 1015.9 |
| 20260502091518 | 53 | 320 | 2.0 | 3.0 | 0.00 | 0.00 | 0.00 | 65 | 1014.8 |
| 20260502091015 | 53 | 352 | 3.0 | 5.0 | 0.00 | 0.00 | 0.00 | 64 | 1015.1 |
| 20260502090512 | 53 | 292 | 4.0 | 6.0 | 0.00 | 0.00 | 0.00 | 64 | 1014.8 |
| 20260502071406 | 56 | 310 | 1.0 | 1.0 | 0.00 | 0.00 | 0.00 | 67 | 1014.7 |
| 20260502070905 | 56 | 308 | 1.0 | 1.0 | 0.00 | 0.00 | 0.00 | 67 | 1014.8 |
| 20260502070402 | 56 | 51 | 2.0 | 3.0 | 0.00 | 0.00 | 0.00 | 66 | 1014.6 |
| 20260502065901 | 56 | 0 | 4.0 | 6.0 | 0.00 | 0.00 | 0.00 | 66 | 1014.4 |
| 20260502065358 | 56 | 321 | 0.0 | 1.0 | 0.00 | 0.00 | 0.00 | 66 | 1014.7 |
| 20260502064856 | 56 | 274 | 6.0 | 7.0 | 0.00 | 0.00 | 0.00 | 66 | 1014.5 |
| 20260502064354 | 56 | 305 | 5.0 | 8.0 | 0.00 | 0.00 | 0.00 | 66 | 1014.5 |
| 20260502063850 | 56 | 282 | 3.0 | 5.0 | 0.00 | 0.00 | 0.00 | 66 | 1014.4 |
| 20260502063349 | 56 | 276 | 1.0 | 2.0 | 0.00 | 0.00 | 0.00 | 65 | 1014.3 |
| 20260502062846 | 56 | 282 | 3.0 | 5.0 | 0.00 | 0.00 | 0.00 | 65 | 1014.2 |
| 20260502062343 | 57 | 312 | 3.0 | 5.0 | 0.00 | 0.00 | 0.00 | 64 | 1014.3 |
| 20260502061842 | 57 | 327 | 4.0 | 6.0 | 0.00 | 0.00 | 0.00 | 64 | 1014.7 |
| 20260502061339 | 57 | 320 | 4.0 | 5.0 | 0.00 | 0.00 | 0.00 | 65 | 1014.6 |
| 20260502060835 | 57 | 331 | 4.0 | 6.0 | 0.00 | 0.00 | 0.00 | 64 | 1014.7 |
| 20260502060330 | 57 | 350 | 5.0 | 9.0 | 0.00 | 0.00 | 0.00 | 65 | 1014.7 |
| 20260502055828 | 57 | 357 | 5.0 | 6.0 | 0.00 | 0.00 | 0.00 | 65 | 1014.7 |
| 20260502055326 | 57 | 334 | 5.0 | 7.0 | 0.00 | 0.00 | 0.00 | 66 | 1015.1 |
| 20260502054825 | 57 | 344 | 3.0 | 5.0 | 0.00 | 0.00 | 0.00 | 67 | 1014.7 |
| 20260502054322 | 58 | 328 | 1.0 | 3.0 | 0.00 | 0.00 | 0.00 | 66 | 1014.9 |
| 20260502053820 | 57 | 325 | 2.0 | 3.0 | 0.00 | 0.00 | 0.00 | 66 | 1014.7 |
| 20260502053316 | 57 | 4 | 1.0 | 2.0 | 0.00 | 0.00 | 0.00 | 67 | 1014.9 |
| 20260502052814 | 58 | 6 | 3.0 | 6.0 | 0.00 | 0.00 | 0.00 | 68 | 1014.6 |
| 20260502052312 | 58 | 337 | 5.0 | 9.0 | 0.00 | 0.00 | 0.00 | 68 | 1014.8 |
| 20260502051810 | 57 | 61 | 0.0 | 1.0 | 0.00 | 0.00 | 0.00 | 70 | 1014.8 |
| 20260502051309 | 57 | 321 | 1.0 | 1.0 | 0.00 | 0.00 | 0.00 | 73 | 1014.8 |
| 20260502050804 | 57 | 346 | 1.0 | 2.0 | 0.00 | 0.00 | 0.00 | 77 | 1014.9 |
| 20260502050300 | 57 | 248 | 0.0 | 0.0 | 0.00 | 0.00 | 0.00 | 79 | 1014.8 |
| 20260502045758 | 57 | 236 | 1.0 | 1.0 | 0.00 | 0.00 | 0.00 | 79 | 1014.8 |
| 20260502045254 | 57 | 177 | 3.0 | 5.0 | 0.00 | 0.00 | 0.00 | 78 | 1014.9 |
| 20260502044751 | 57 | 211 | 3.0 | 3.0 | 0.00 | 0.00 | 0.00 | 75 | 1014.8 |
| 20260502044247 | 57 | 253 | 0.0 | 1.0 | 0.00 | 0.00 | 0.00 | 76 | 1015.0 |
| 20260502043745 | 57 | 198 | 1.0 | 1.0 | 0.00 | 0.00 | 0.00 | 75 | 1014.9 |
| 20260502043242 | 57 | 278 | 1.0 | 1.0 | 0.00 | 0.00 | 0.00 | 75 | 1015.0 |
| 20260502042742 | 58 | 224 | 2.0 | 2.0 | 0.00 | 0.00 | 0.00 | 74 | 1014.9 |
| 20260502042239 | 58 | 160 | 2.0 | 2.0 | 0.00 | 0.00 | 0.00 | 73 | 1014.8 |
| 20260502041737 | 58 | 174 | 3.0 | 6.0 | 0.00 | 0.00 | 0.00 | 73 | 1014.8 |
| 20260502041234 | 58 | 201 | 3.0 | 5.0 | 0.00 | 0.00 | 0.00 | 72 | 1014.7 |
| 20260502040731 | 58 | 202 | 0.0 | 1.0 | 0.00 | 0.00 | 0.00 | 72 | 1014.8 |
| 20260502040228 | 58 | 224 | 2.0 | 2.0 | 0.00 | 0.00 | 0.00 | 70 | 1014.6 |
| 20260502035724 | 58 | 221 | 1.0 | 1.0 | 0.00 | 0.00 | 0.00 | 69 | 1014.5 |
| 20260502035221 | 58 | 339 | 0.0 | 1.0 | 0.00 | 0.00 | 0.00 | 67 | 1014.5 |
| 20260502034718 | 58 | 277 | 2.0 | 2.0 | 0.00 | 0.00 | 0.00 | 67 | 1014.5 |
| 20260502034216 | 58 | 205 | 1.0 | 1.0 | 0.00 | 0.00 | 0.00 | 66 | 1014.1 |
| 20260502033714 | 58 | 188 | 2.0 | 3.0 | 0.00 | 0.00 | 0.00 | 66 | 1014.1 |
| 20260502033212 | 58 | 138 | 2.0 | 2.0 | 0.00 | 0.00 | 0.00 | 66 | 1014.0 |
| 20260502032708 | 58 | 164 | 2.0 | 3.0 | 0.00 | 0.00 | 0.00 | 66 | 1014.0 |
| 20260502032204 | 58 | 223 | 3.0 | 5.0 | 0.00 | 0.00 | 0.00 | 66 | 1013.9 |
| 20260502031702 | 58 | 227 | 2.0 | 2.0 | 0.00 | 0.00 | 0.00 | 66 | 1013.6 |
| 20260502031200 | 58 | 156 | 5.0 | 7.0 | 0.00 | 0.00 | 0.00 | 66 | 1013.9 |
| 20260502030658 | 58 | 143 | 4.0 | 5.0 | 0.00 | 0.00 | 0.00 | 65 | 1013.8 |
| 20260502030156 | 58 | 220 | 1.0 | 1.0 | 0.00 | 0.00 | 0.00 | 65 | 1013.6 |
| 20260502025653 | 58 | 199 | 1.0 | 2.0 | 0.00 | 0.00 | 0.00 | 65 | 1013.4 |
| 20260502025151 | 58 | 136 | 1.0 | 2.0 | 0.00 | 0.00 | 0.00 | 65 | 1013.6 |
| 20260502024648 | 58 | 127 | 3.0 | 3.0 | 0.00 | 0.00 | 0.00 | 64 | 1013.6 |
| 20260502024146 | 58 | 181 | 4.0 | 5.0 | 0.00 | 0.00 | 0.00 | 64 | 1013.4 |
| 20260502023644 | 58 | 175 | 1.0 | 5.0 | 0.00 | 0.00 | 0.00 | 64 | 1013.7 |
| 20260502023141 | 58 | 194 | 2.0 | 3.0 | 0.00 | 0.00 | 0.00 | 63 | 1013.7 |
| 20260502022638 | 58 | 160 | 3.0 | 5.0 | 0.00 | 0.00 | 0.00 | 63 | 1013.9 |
| 20260502022135 | 58 | 209 | 2.0 | 3.0 | 0.00 | 0.00 | 0.00 | 63 | 1013.7 |
| 20260502021632 | 58 | 136 | 1.0 | 2.0 | 0.00 | 0.00 | 0.00 | 62 | 1013.7 |
| 20260502021129 | 59 | 125 | 2.0 | 2.0 | 0.00 | 0.00 | 0.00 | 62 | 1013.7 |
| 20260502020627 | 59 | 159 | 2.0 | 2.0 | 0.00 | 0.00 | 0.00 | 61 | 1013.8 |
| 20260502020123 | 59 | 166 | 0.0 | 0.0 | 0.00 | 0.00 | 0.00 | 61 | 1013.7 |
| 20260502015621 | 59 | 193 | 1.0 | 1.0 | 0.00 | 0.00 | 0.00 | 60 | 1013.7 |
| 20260502015117 | 59 | 215 | 3.0 | 3.0 | 0.00 | 0.00 | 0.00 | 60 | 1013.7 |
| 20260502014615 | 59 | 145 | 3.0 | 3.0 | 0.00 | 0.00 | 0.00 | 59 | 1013.6 |
| 20260502014112 | 60 | 53 | 0.0 | 1.0 | 0.00 | 0.00 | 0.00 | 59 | 1013.5 |
| 20260502013608 | 60 | 171 | 1.0 | 1.0 | 0.00 | 0.00 | 0.00 | 58 | 1013.4 |
| 20260502013103 | 60 | 108 | 4.0 | 5.0 | 0.00 | 0.00 | 0.00 | 57 | 1013.5 |
| 20260502012601 | 60 | 155 | 3.0 | 5.0 | 0.00 | 0.00 | 0.00 | 56 | 1013.2 |
| 20260502012059 | 60 | 161 | 3.0 | 3.0 | 0.00 | 0.00 | 0.00 | 56 | 1013.1 |
| 20260502011555 | 60 | 150 | 4.0 | 6.0 | 0.00 | 0.00 | 0.00 | 55 | 1012.8 |
| 20260502011051 | 61 | 138 | 6.0 | 8.0 | 0.00 | 0.00 | 0.00 | 54 | 1012.8 |
| 20260502010549 | 61 | 164 | 2.0 | 2.0 | 0.00 | 0.00 | 0.00 | 53 | 1012.9 |
| 20260502010045 | 61 | 142 | 3.0 | 5.0 | 0.00 | 0.00 | 0.00 | 53 | 1012.5 |
| 20260502005543 | 61 | 149 | 6.0 | 8.0 | 0.00 | 0.00 | 0.00 | 52 | 1012.6 |
| 20260502005041 | 61 | 129 | 5.0 | 7.0 | 0.00 | 0.00 | 0.00 | 51 | 1012.5 |
| 20260502004536 | 62 | 131 | 4.0 | 6.0 | 0.00 | 0.00 | 0.00 | 51 | 1012.4 |
| 20260502004033 | 62 | 123 | 6.0 | 7.0 | 0.00 | 0.00 | 0.00 | 50 | 1012.3 |
| 20260502003531 | 63 | 139 | 4.0 | 5.0 | 0.00 | 0.00 | 0.00 | 48 | 1012.3 |
| 20260502003027 | 63 | 125 | 6.0 | 7.0 | 0.00 | 0.00 | 0.00 | 47 | 1012.0 |
| 20260502002524 | 63 | 143 | 4.0 | 5.0 | 0.00 | 0.00 | 0.00 | 47 | 1012.1 |
| 20260502002021 | 63 | 237 | 4.0 | 7.0 | 0.00 | 0.00 | 0.00 | 46 | 1012.2 |
| 20260502001519 | 64 | 307 | 1.0 | 2.0 | 0.00 | 0.00 | 0.00 | 45 | 1012.6 |
| 20260502001016 | 64 | 172 | 3.0 | 5.0 | 0.00 | 0.00 | 0.00 | 45 | 1012.4 |
| 20260502000514 | 64 | 109 | 2.0 | 2.0 | 0.00 | 0.00 | 0.00 | 45 | 1012.6 |
| 20260502000011 | 64 | 239 | 4.0 | 5.0 | 0.00 | 0.00 | 0.00 | 45 | 1012.4 |
| 20260501235507 | 64 | 142 | 1.0 | 2.0 | 0.00 | 0.00 | 0.00 | 45 | 1012.3 |
| 20260501235002 | 64 | 233 | 0.0 | 1.0 | 0.00 | 0.00 | 0.00 | 45 | 1012.2 |
| 20260501234458 | 64 | 165 | 4.0 | 6.0 | 0.00 | 0.00 | 0.00 | 44 | 1012.0 |
| 20260501233957 | 64 | 171 | 2.0 | 5.0 | 0.00 | 0.00 | 0.00 | 44 | 1012.3 |
| 20260501233455 | 65 | 229 | 1.0 | 2.0 | 0.00 | 0.00 | 0.00 | 43 | 1012.1 |
| 20260501232950 | 65 | 88 | 3.0 | 3.0 | 0.00 | 0.00 | 0.00 | 43 | 1012.0 |
| 20260501232447 | 65 | 169 | 1.0 | 1.0 | 0.00 | 0.00 | 0.00 | 43 | 1012.0 |
| 20260501231944 | 66 | 157 | 3.0 | 3.0 | 0.00 | 0.00 | 0.00 | 42 | 1011.8 |
| 20260501231443 | 66 | 83 | 5.0 | 7.0 | 0.00 | 0.00 | 0.00 | 41 | 1012.0 |
| 20260501230941 | 66 | 350 | 2.0 | 2.0 | 0.00 | 0.00 | 0.00 | 41 | 1012.0 |
| 20260501230439 | 66 | 182 | 2.0 | 5.0 | 0.00 | 0.00 | 0.00 | 41 | 1011.8 |
| 20260501225936 | 67 | 167 | 4.0 | 9.0 | 0.00 | 0.00 | 0.00 | 40 | 1012.1 |
| 20260501225434 | 67 | 217 | 5.0 | 7.0 | 0.00 | 0.00 | 0.00 | 39 | 1012.0 |
| 20260501224930 | 67 | 200 | 7.0 | 8.0 | 0.00 | 0.00 | 0.00 | 39 | 1012.2 |
| 20260501224427 | 67 | 185 | 7.0 | 9.0 | 0.00 | 0.00 | 0.00 | 39 | 1012.2 |
| 20260501223924 | 67 | 197 | 5.0 | 8.0 | 0.00 | 0.00 | 0.00 | 40 | 1012.3 |
| 20260501223420 | 68 | 245 | 3.0 | 5.0 | 0.00 | 0.00 | 0.00 | 39 | 1012.5 |
| 20260501222916 | 68 | 199 | 7.0 | 10.0 | 0.00 | 0.00 | 0.00 | 38 | 1012.4 |
| 20260501222414 | 67 | 184 | 6.0 | 8.0 | 0.00 | 0.00 | 0.00 | 39 | 1012.5 |
| 20260501221910 | 67 | 240 | 1.0 | 1.0 | 0.00 | 0.00 | 0.00 | 39 | 1012.2 |
| 20260501221407 | 68 | 199 | 8.0 | 9.0 | 0.00 | 0.00 | 0.00 | 38 | 1012.4 |
| 20260501220905 | 68 | 166 | 7.0 | 9.0 | 0.00 | 0.00 | 0.00 | 39 | 1012.4 |
| 20260501220402 | 68 | 210 | 5.0 | 8.0 | 0.00 | 0.00 | 0.00 | 38 | 1012.7 |
| 20260501215858 | 67 | 214 | 5.0 | 8.0 | 0.00 | 0.00 | 0.00 | 39 | 1012.7 |
| 20260501215355 | 68 | 225 | 3.0 | 5.0 | 0.00 | 0.00 | 0.00 | 38 | 1012.5 |
| 20260501214851 | 68 | 321 | 5.0 | 8.0 | 0.00 | 0.00 | 0.00 | 39 | 1012.7 |
| 20260501214346 | 67 | 173 | 7.0 | 9.0 | 0.00 | 0.00 | 0.00 | 39 | 1012.5 |
| 20260501213842 | 69 | 200 | 5.0 | 6.0 | 0.00 | 0.00 | 0.00 | 38 | 1012.5 |
| 20260501213339 | 67 | 134 | 4.0 | 6.0 | 0.00 | 0.00 | 0.00 | 39 | 1012.7 |
| 20260501212834 | 68 | 266 | 2.0 | 2.0 | 0.00 | 0.00 | 0.00 | 39 | 1012.7 |
| 20260501212331 | 67 | 157 | 5.0 | 7.0 | 0.00 | 0.00 | 0.00 | 40 | 1012.8 |
| 20260501211828 | 67 | 138 | 3.0 | 6.0 | 0.00 | 0.00 | 0.00 | 40 | 1012.6 |
| 20260501211326 | 67 | 93 | 2.0 | 2.0 | 0.00 | 0.00 | 0.00 | 40 | 1012.6 |
| 20260501210823 | 66 | 187 | 3.0 | 3.0 | 0.00 | 0.00 | 0.00 | 40 | 1012.6 |
| 20260501210320 | 67 | 147 | 5.0 | 7.0 | 0.00 | 0.00 | 0.00 | 39 | 1012.7 |
| 20260501205816 | 67 | 180 | 5.0 | 8.0 | 0.00 | 0.00 | 0.00 | 40 | 1012.4 |
| 20260501205313 | 68 | 113 | 3.0 | 5.0 | 0.00 | 0.00 | 0.00 | 40 | 1012.5 |
| 20260501204810 | 68 | 210 | 6.0 | 8.0 | 0.00 | 0.00 | 0.00 | 40 | 1012.6 |
| 20260501204306 | 68 | 260 | 6.0 | 7.0 | 0.00 | 0.00 | 0.00 | 40 | 1012.9 |
| 20260501203802 | 67 | 161 | 5.0 | 7.0 | 0.00 | 0.00 | 0.00 | 41 | 1013.0 |
| 20260501203300 | 66 | 23 | 1.0 | 1.0 | 0.00 | 0.00 | 0.00 | 41 | 1013.2 |
| 20260501202757 | 66 | 143 | 5.0 | 6.0 | 0.00 | 0.00 | 0.00 | 41 | 1013.2 |
| 20260501202254 | 67 | 139 | 1.0 | 2.0 | 0.00 | 0.00 | 0.00 | 40 | 1013.4 |
| 20260501201750 | 67 | 158 | 7.0 | 8.0 | 0.00 | 0.00 | 0.00 | 40 | 1013.0 |
| 20260501201247 | 67 | 200 | 3.0 | 6.0 | 0.00 | 0.00 | 0.00 | 40 | 1013.2 |
| 20260501200744 | 67 | 167 | 4.0 | 5.0 | 0.00 | 0.00 | 0.00 | 39 | 1013.4 |
| 20260501200241 | 69 | 170 | 3.0 | 8.0 | 0.00 | 0.00 | 0.00 | 37 | 1013.7 |
| 20260501195739 | 68 | 174 | 8.0 | 9.0 | 0.00 | 0.00 | 0.00 | 36 | 1013.9 |
| 20260501195234 | 68 | 161 | 2.0 | 5.0 | 0.00 | 0.00 | 0.00 | 36 | 1013.8 |
| 20260501194731 | 68 | 164 | 7.0 | 10.0 | 0.00 | 0.00 | 0.00 | 36 | 1014.0 |
| 20260501194226 | 66 | 258 | 5.0 | 7.0 | 0.00 | 0.00 | 0.00 | 38 | 1013.5 |
| 20260501193723 | 67 | 212 | 9.0 | 11.0 | 0.00 | 0.00 | 0.00 | 38 | 1014.2 |
| 20260501193222 | 66 | 249 | 3.0 | 5.0 | 0.00 | 0.00 | 0.00 | 39 | 1014.1 |
| 20260501192719 | 67 | 189 | 9.0 | 13.0 | 0.00 | 0.00 | 0.00 | 38 | 1014.3 |
| 20260501192216 | 67 | 284 | 5.0 | 6.0 | 0.00 | 0.00 | 0.00 | 39 | 1014.3 |
| 20260501191713 | 65 | 198 | 5.0 | 7.0 | 0.00 | 0.00 | 0.00 | 41 | 1014.4 |
| 20260501191210 | 66 | 204 | 4.0 | 7.0 | 0.00 | 0.00 | 0.00 | 39 | 1014.3 |
| 20260501190706 | 65 | 238 | 4.0 | 5.0 | 0.00 | 0.00 | 0.00 | 40 | 1014.4 |
| 20260501190202 | 66 | 226 | 11.0 | 16.0 | 0.00 | 0.00 | 0.00 | 41 | 1014.5 |
| 20260501185658 | 66 | 244 | 6.0 | 8.0 | 0.00 | 0.00 | 0.00 | 41 | 1014.7 |
| 20260501185154 | 67 | 181 | 4.0 | 5.0 | 0.00 | 0.00 | 0.00 | 40 | 1014.5 |
| 20260501184650 | 65 | 186 | 6.0 | 8.0 | 0.00 | 0.00 | 0.00 | 42 | 1014.7 |
| 20260501184145 | 65 | 176 | 6.0 | 7.0 | 0.00 | 0.00 | 0.00 | 41 | 1014.8 |
| 20260501183642 | 65 | 199 | 9.0 | 10.0 | 0.00 | 0.00 | 0.00 | 42 | 1014.8 |
| 20260501183138 | 66 | 232 | 5.0 | 9.0 | 0.00 | 0.00 | 0.00 | 40 | 1015.0 |
| 20260501182635 | 66 | 276 | 3.0 | 5.0 | 0.00 | 0.00 | 0.00 | 40 | 1015.1 |
| 20260501182132 | 65 | 181 | 2.0 | 3.0 | 0.00 | 0.00 | 0.00 | 40 | 1015.0 |
| 20260501181629 | 64 | 50 | 0.0 | 1.0 | 0.00 | 0.00 | 0.00 | 40 | 1015.2 |
| 20260501181125 | 65 | 278 | 3.0 | 3.0 | 0.00 | 0.00 | 0.00 | 40 | 1015.1 |
| 20260501180624 | 64 | 126 | 6.0 | 10.0 | 0.00 | 0.00 | 0.00 | 39 | 1015.0 |
| 20260501180120 | 65 | 260 | 3.0 | 3.0 | 0.00 | 0.00 | 0.00 | 37 | 1015.1 |
| 20260501175617 | 65 | 159 | 3.0 | 5.0 | 0.00 | 0.00 | 0.00 | 38 | 1015.1 |
| 20260501175114 | 64 | 219 | 5.0 | 6.0 | 0.00 | 0.00 | 0.00 | 39 | 1015.4 |
| 20260501174610 | 65 | 181 | 5.0 | 6.0 | 0.00 | 0.00 | 0.00 | 37 | 1015.1 |
| 20260501174108 | 64 | 250 | 4.0 | 6.0 | 0.00 | 0.00 | 0.00 | 38 | 1015.4 |
| 20260501173605 | 64 | 219 | 6.0 | 7.0 | 0.00 | 0.00 | 0.00 | 39 | 1015.6 |
| 20260501173102 | 64 | 241 | 4.0 | 8.0 | 0.00 | 0.00 | 0.00 | 38 | 1015.5 |
| 20260501172557 | 65 | 106 | 5.0 | 8.0 | 0.00 | 0.00 | 0.00 | 38 | 1015.5 |
| 20260501172053 | 63 | 248 | 5.0 | 9.0 | 0.00 | 0.00 | 0.00 | 41 | 1015.7 |
| 20260501171549 | 63 | 265 | 1.0 | 1.0 | 0.00 | 0.00 | 0.00 | 40 | 1015.9 |
| 20260501171046 | 62 | 226 | 1.0 | 2.0 | 0.00 | 0.00 | 0.00 | 42 | 1015.7 |
| 20260501170543 | 62 | 239 | 3.0 | 3.0 | 0.00 | 0.00 | 0.00 | 41 | 1016.0 |
| 20260501170040 | 63 | 271 | 5.0 | 7.0 | 0.00 | 0.00 | 0.00 | 41 | 1015.9 |
| 20260501165538 | 62 | 315 | 2.0 | 3.0 | 0.00 | 0.00 | 0.00 | 42 | 1015.8 |
| 20260501165035 | 63 | 236 | 3.0 | 6.0 | 0.00 | 0.00 | 0.00 | 42 | 1015.8 |
| 20260501164533 | 63 | 276 | 4.0 | 5.0 | 0.00 | 0.00 | 0.00 | 43 | 1015.7 |
| 20260501164029 | 62 | 234 | 3.0 | 6.0 | 0.00 | 0.00 | 0.00 | 43 | 1016.0 |
| 20260501163526 | 62 | 268 | 3.0 | 5.0 | 0.00 | 0.00 | 0.00 | 44 | 1016.1 |
| 20260501163023 | 62 | 204 | 3.0 | 5.0 | 0.00 | 0.00 | 0.00 | 44 | 1016.0 |
| 20260501162519 | 62 | 216 | 7.0 | 8.0 | 0.00 | 0.00 | 0.00 | 44 | 1016.2 |
| 20260501162016 | 62 | 235 | 4.0 | 6.0 | 0.00 | 0.00 | 0.00 | 43 | 1016.3 |
| 20260501161513 | 61 | 277 | 3.0 | 5.0 | 0.00 | 0.00 | 0.00 | 43 | 1016.2 |
| 20260501161010 | 62 | 253 | 8.0 | 9.0 | 0.00 | 0.00 | 0.00 | 43 | 1016.1 |
| 20260501160507 | 63 | 293 | 5.0 | 7.0 | 0.00 | 0.00 | 0.00 | 43 | 1016.1 |
| 20260501160004 | 62 | 201 | 1.0 | 2.0 | 0.00 | 0.00 | 0.00 | 44 | 1016.2 |
| 20260501155500 | 61 | 196 | 2.0 | 2.0 | 0.00 | 0.00 | 0.00 | 44 | 1016.4 |
| 20260501154957 | 60 | 250 | 4.0 | 6.0 | 0.00 | 0.00 | 0.00 | 46 | 1016.7 |
| 20260501154455 | 61 | 249 | 4.0 | 6.0 | 0.00 | 0.00 | 0.00 | 44 | 1016.6 |
| 20260501153951 | 61 | 168 | 2.0 | 2.0 | 0.00 | 0.00 | 0.00 | 43 | 1016.9 |
| 20260501153449 | 61 | 197 | 0.0 | 0.0 | 0.00 | 0.00 | 0.00 | 42 | 1017.0 |
| 20260501152944 | 60 | 155 | 2.0 | 3.0 | 0.00 | 0.00 | 0.00 | 43 | 1016.9 |
| 20260501152442 | 61 | 212 | 3.0 | 3.0 | 0.00 | 0.00 | 0.00 | 41 | 1017.2 |
| 20260501151939 | 63 | 146 | 5.0 | 6.0 | 0.00 | 0.00 | 0.00 | 40 | 1017.1 |
| 20260501151436 | 61 | 343 | 1.0 | 2.0 | 0.00 | 0.00 | 0.00 | 41 | 1017.3 |
| 20260501150932 | 61 | 252 | 2.0 | 2.0 | 0.00 | 0.00 | 0.00 | 42 | 1017.2 |
| 20260501150428 | 62 | 181 | 2.0 | 3.0 | 0.00 | 0.00 | 0.00 | 41 | 1017.1 |
| 20260501145924 | 62 | 319 | 2.0 | 2.0 | 0.00 | 0.00 | 0.00 | 42 | 1017.3 |
| 20260501145421 | 61 | 199 | 0.0 | 1.0 | 0.00 | 0.00 | 0.00 | 43 | 1017.2 |
| 20260501144919 | 60 | 135 | 6.0 | 7.0 | 0.00 | 0.00 | 0.00 | 43 | 1017.3 |
| 20260501144414 | 59 | 10 | 1.0 | 2.0 | 0.00 | 0.00 | 0.00 | 45 | 1017.2 |
| 20260501143910 | 61 | 326 | 3.0 | 3.0 | 0.00 | 0.00 | 0.00 | 43 | 1017.3 |
| 20260501143407 | 61 | 322 | 2.0 | 2.0 | 0.00 | 0.00 | 0.00 | 43 | 1017.3 |
| 20260501142903 | 61 | 318 | 1.0 | 2.0 | 0.00 | 0.00 | 0.00 | 43 | 1017.3 |
| 20260501142400 | 60 | 328 | 1.0 | 2.0 | 0.00 | 0.00 | 0.00 | 44 | 1017.4 |
| 20260501141856 | 61 | 243 | 1.0 | 1.0 | 0.00 | 0.00 | 0.00 | 44 | 1017.3 |
| 20260501141353 | 60 | 218 | 1.0 | 1.0 | 0.00 | 0.00 | 0.00 | 46 | 1017.3 |
| 20260501140851 | 60 | 316 | 1.0 | 2.0 | 0.00 | 0.00 | 0.00 | 47 | 1017.3 |
| 20260501140346 | 59 | 208 | 3.0 | 3.0 | 0.00 | 0.00 | 0.00 | 46 | 1017.6 |